Home   Weather   Gänserndorf   Past weeks

Flag for Austria Past Weather in Gänserndorf, Lower Austria, Austria — Yesterday and Last 2 Weeks

Now
20 °F

Passing clouds.


Feels Like: N/A
Forecast: 15 / 24 °F
Wind: N/A

Location: Wien / Schwechat-Flughafen

Current Time: Jan 20, 2017 at 7:20:04 pm

Latest Report: Jan 20, 2017 at 6:00 pm


Visibility: 3 mi

Pressure: 30.62 "Hg

Humidity: 85%

Dew Point: 16 °F

Location of GänserndorfLocation

Past Weather in Gänserndorf — Graph

°F

Gänserndorf Temperature Yesterday

Maximum temperature yesterday: 25 °F (at 3:00 pm)
Minimum temperature yesterday: 15 °F (at 8:00 am)
Average temperature yesterday: 19 °F

High & Low Weather Summary for the Past Weeks

 TemperatureHumidityPressure
High44 °F (Jan 12, 2:00 pm)96% (Jan 12, 6:00 am)30.72 "Hg (Jan 12, 6:00 am)
Low7 °F (Jan 7, 5:00 am)44% (Jan 7, 2:00 pm)29.41 "Hg (Jan 13, 6:00 am)
Average24 °F75%30.26 "Hg
* Reported Jan 5 5:00 pm — Jan 20 5:00 pm, Gänserndorf, Weather by CustomWeather, © 2017

Note: Actual official high and low records may vary slightly from our data, if they occured in-between our weather recording intervals... More about our weather records

Advertising

Gänserndorf Weather History for the Previous 24 Hours

Scroll right to see more
 ConditionsComfort  
Time TempWeatherWind HumidityBarometerVisibility
5:00 pm
Fri, Jan 20
23 °FHaze.N/A80%30.62 "Hg2 mi
4:00 pm25 °FSunny.N/A75%30.62 "Hg3 mi
3:00 pm26 °FSunny.3 mph72%30.63 "Hg3 mi
2:00 pm25 °FSunny.N/A75%30.63 "Hg3 mi
1:00 pm22 °FSunny.N/A81%30.65 "Hg3 mi
12:00 pm20 °FSunny.N/A84%30.67 "Hg2 mi
11:00 am18 °FSunny.N/A90%30.70 "Hg2 mi
10:00 am14 °FSunny.N/A91%30.71 "Hg2 mi
9:00 am12 °FPassing clouds.N/A91%30.72 "Hg2 mi
8:00 am11 °FPassing clouds.N/A92%30.70 "Hg2 mi
7:00 am11 °FClear.N/A92%30.70 "Hg3 mi
6:00 am12 °FClear.N/A91%30.69 "Hg3 mi
5:00 am10 °FClear.N/A92%30.70 "Hg2 mi
4:00 am12 °FClear.N/A92%30.70 "Hg2 mi
3:00 am11 °FPassing clouds.N/A87%30.70 "Hg2 mi
2:00 am14 °FPassing clouds.N/A93%30.70 "Hg3 mi
1:00 am15 °FClear.No wind94%30.70 "Hg2 mi
12:00 am15 °FClear.N/A94%30.71 "Hg3 mi
11:00 pm
Thu, Jan 19
16 °FClear.N/A92%30.71 "Hg3 mi
10:00 pm17 °FClear.N/A89%30.70 "Hg4 mi
9:00 pm19 °FClear.N/A85%30.69 "Hg4 mi
8:00 pm18 °FClear.N/A85%30.68 "Hg4 mi
7:00 pm20 °FClear.N/A82%30.68 "Hg5 mi
Weather by CustomWeather, © 2017

See weather overviewHow to use our weather pages